QZS-4 (QZSS/PRN 195)

Last updated on Tue Jul 01 2025 00:03:24 GMT+0000 (Coordinated Universal Time)

1 42965U 17062A 25181.30372501 -.00000378 00000+0 00000+0 0 9997 2 42965 40.3210 347.9770 0745316 271.8175 263.4720 1.00247515 28281
UTC large
Height (km)
Speed (km/s)
/
Latitude / Longitude
Inclination (degrees)
Orbital Period (minutes)
Azimuth
Elevation
Range (km)
Doppler Factor

Next 0 passes for location: London (51.5072 / 0.1276)

Sorry there are no passes over London.